ACA221 KORD-CYXU

Flight info

Callsign ACA221
Flight time 0h 53m
Altitude 33000
Route EBAKE WISMO POSTS PADDE SVM YXU
Aircraft A319/M-SDE3FGHIRWY/LB1

Departure

Time 2026-04-20 00:47
Airport Chicago O'Hare International Airport (KORD)

Arrival

Time 2026-04-20 01:40
Airport London International Airport (CYXU)
Time Latitude Longitude Altitude Speed Heading
2026-04-20 00:31 41.97370 -87.90546 675 ft 0 kts 270°
2026-04-20 00:38 41.97370 -87.90545 675 ft 0 kts 270°
2026-04-20 00:40 41.97370 -87.90526 675 ft 3 kts 270°
2026-04-20 00:40 41.97371 -87.90491 675 ft 3 kts 255°
2026-04-20 00:40 41.97387 -87.90469 675 ft 3 kts 202°
2026-04-20 00:40 41.97392 -87.90466 675 ft 0 kts 191°
2026-04-20 00:43 41.97376 -87.90471 675 ft 7 kts 192°
2026-04-20 00:43 41.97290 -87.90491 675 ft 16 kts 186°
2026-04-20 00:44 41.97175 -87.90524 675 ft 16 kts 180°
2026-04-20 00:44 41.97136 -87.90407 675 ft 15 kts 93°
2026-04-20 00:44 41.97134 -87.90265 675 ft 15 kts 89°
2026-04-20 00:44 41.97108 -87.90134 675 ft 14 kts 167°
2026-04-20 00:45 41.97040 -87.90060 675 ft 14 kts 88°
2026-04-20 00:45 41.97041 -87.89916 675 ft 15 kts 90°
2026-04-20 00:45 41.97041 -87.89767 675 ft 16 kts 91°
2026-04-20 00:45 41.97024 -87.89615 675 ft 16 kts 116°
2026-04-20 00:46 41.97010 -87.89585 675 ft 0 kts 135°
2026-04-20 00:46 41.97004 -87.89578 675 ft 2 kts 136°
2026-04-20 00:46 41.96982 -87.89564 675 ft 6 kts 169°
2026-04-20 00:46 41.96910 -87.89584 675 ft 14 kts 238°
2026-04-20 00:47 41.96904 -87.89941 675 ft 75 kts 270°
2026-04-20 00:47 41.96899 -87.90971 675 ft 142 kts 267°
2026-04-20 00:47 41.96888 -87.92396 1102 ft 158 kts 275°
2026-04-20 00:47 41.96898 -87.93862 1817 ft 159 kts 283°
2026-04-20 00:48 41.97351 -87.95074 2604 ft 149 kts 325°
2026-04-20 00:48 41.98368 -87.95433 3125 ft 165 kts
2026-04-20 00:48 41.99466 -87.94698 3607 ft 190 kts 31°
2026-04-20 00:48 42.00532 -87.93529 4110 ft 209 kts 36°
2026-04-20 00:49 42.01473 -87.91904 4610 ft 237 kts 58°
2026-04-20 00:49 42.02139 -87.89788 5177 ft 258 kts 64°
2026-04-20 00:49 42.02781 -87.87488 5808 ft 273 kts 64°
2026-04-20 00:49 42.03472 -87.85069 6670 ft 280 kts 63°
2026-04-20 00:50 42.04188 -87.82648 7574 ft 284 kts 63°
2026-04-20 00:50 42.04934 -87.80196 8458 ft 289 kts 62°
2026-04-20 00:50 42.05710 -87.77688 9350 ft 294 kts 62°
2026-04-20 00:50 42.06500 -87.75159 10226 ft 299 kts 61°
2026-04-20 00:51 42.07320 -87.72549 10868 ft 312 kts 61°
2026-04-20 00:51 42.08190 -87.69798 11341 ft 330 kts 60°
2026-04-20 00:51 42.09120 -87.66874 11770 ft 349 kts 61°
2026-04-20 00:51 42.10080 -87.63838 12350 ft 360 kts 61°
2026-04-20 00:52 42.11055 -87.60731 13136 ft 365 kts 60°
2026-04-20 00:52 42.12039 -87.57587 13901 ft 370 kts 60°
2026-04-20 00:52 42.13038 -87.54393 14665 ft 375 kts 60°
2026-04-20 00:52 42.13988 -87.51351 15355 ft 380 kts 59°
2026-04-20 00:53 42.15007 -87.48083 16035 ft 385 kts 58°
2026-04-20 00:53 42.16049 -87.44749 16734 ft 389 kts 58°
2026-04-20 00:53 42.17092 -87.41404 17396 ft 394 kts 58°
2026-04-20 00:53 42.18157 -87.37995 18003 ft 399 kts 57°
2026-04-20 00:54 42.19236 -87.34529 18615 ft 403 kts 58°
2026-04-20 00:54 42.20320 -87.31046 19211 ft 409 kts 57°
2026-04-20 00:54 42.21421 -87.27509 19757 ft 414 kts 57°
2026-04-20 00:54 42.22535 -87.23919 20285 ft 419 kts 57°
2026-04-20 00:55 42.23663 -87.20270 20866 ft 423 kts 57°
2026-04-20 00:55 42.24797 -87.16598 21433 ft 426 kts 57°
2026-04-20 00:55 42.25939 -87.12892 21937 ft 431 kts 57°
2026-04-20 00:55 42.27049 -87.09124 22412 ft 441 kts 61°
2026-04-20 00:56 42.27853 -87.05123 22905 ft 454 kts 70°
2026-04-20 00:56 42.28273 -87.00842 23375 ft 467 kts 78°
2026-04-20 00:56 42.28468 -86.96425 23861 ft 472 kts 79°
2026-04-20 00:56 42.28606 -86.92001 24358 ft 475 kts 80°
2026-04-20 00:57 42.28749 -86.87553 24773 ft 480 kts 79°
2026-04-20 00:57 42.28905 -86.83060 25207 ft 483 kts 79°
2026-04-20 00:57 42.29071 -86.78552 25616 ft 486 kts 80°
2026-04-20 00:57 42.29243 -86.73980 26073 ft 488 kts 80°
2026-04-20 00:58 42.29418 -86.69410 26511 ft 491 kts 80°
2026-04-20 00:58 42.29592 -86.64793 26954 ft 493 kts 80°
2026-04-20 00:58 42.29768 -86.60180 27349 ft 496 kts 80°
2026-04-20 00:58 42.29943 -86.55553 27732 ft 499 kts 80°
2026-04-20 00:59 42.30115 -86.50889 28117 ft 501 kts 80°
2026-04-20 00:59 42.30284 -86.46218 28451 ft 503 kts 81°
2026-04-20 00:59 42.30457 -86.41447 28739 ft 506 kts 81°
2026-04-20 00:59 42.30627 -86.36721 29056 ft 508 kts 81°
2026-04-20 01:00 42.30796 -86.32011 29315 ft 510 kts 81°
2026-04-20 01:00 42.30964 -86.27204 29559 ft 513 kts 82°
2026-04-20 01:00 42.31130 -86.22395 29818 ft 514 kts 82°
2026-04-20 01:00 42.31292 -86.17578 30065 ft 516 kts 82°
2026-04-20 01:01 42.31452 -86.12742 30337 ft 517 kts 82°
2026-04-20 01:01 42.31548 -86.07916 30588 ft 519 kts 85°
2026-04-20 01:01 42.31521 -86.03065 30870 ft 518 kts 86°
2026-04-20 01:01 42.31464 -85.98235 31160 ft 517 kts 86°
2026-04-20 01:02 42.31400 -85.93371 31473 ft 516 kts 87°
2026-04-20 01:02 42.31334 -85.88554 31769 ft 515 kts 87°
2026-04-20 01:02 42.31271 -85.83762 32018 ft 516 kts 87°
2026-04-20 01:02 42.31206 -85.78911 32229 ft 518 kts 87°
2026-04-20 01:03 42.31144 -85.74060 32454 ft 518 kts 87°
2026-04-20 01:03 42.31077 -85.69262 32693 ft 518 kts 87°
2026-04-20 01:03 42.31009 -85.64388 32927 ft 518 kts 87°
2026-04-20 01:03 42.30939 -85.59509 33116 ft 519 kts 87°
2026-04-20 01:04 42.30870 -85.54683 33198 ft 521 kts 87°
2026-04-20 01:04 42.30721 -85.44957 33206 ft 521 kts 88°
2026-04-20 01:05 42.30561 -85.35179 33207 ft 521 kts 88°
2026-04-20 01:05 42.30397 -85.25446 33202 ft 522 kts 88°
2026-04-20 01:06 42.30223 -85.15667 33201 ft 521 kts 88°
2026-04-20 01:06 42.30041 -85.05939 33200 ft 520 kts 88°
2026-04-20 01:07 42.29834 -84.96215 33185 ft 520 kts 89°
2026-04-20 01:07 42.29594 -84.86489 33188 ft 521 kts 89°
2026-04-20 01:08 42.29351 -84.76765 33185 ft 521 kts 89°
2026-04-20 01:08 42.29101 -84.67001 33179 ft 522 kts 89°
2026-04-20 01:09 42.28842 -84.57274 33173 ft 522 kts 89°
2026-04-20 01:09 42.28927 -84.47492 33174 ft 520 kts 82°
2026-04-20 01:10 42.29866 -84.37891 33173 ft 516 kts 75°
2026-04-20 01:10 42.31932 -84.23660 33162 ft 516 kts 75°
2026-04-20 01:11 42.33293 -84.14161 33164 ft 516 kts 76°
2026-04-20 01:11 42.34626 -84.04679 33164 ft 517 kts 76°
2026-04-20 01:12 42.35951 -83.95173 33160 ft 517 kts 76°
2026-04-20 01:12 42.37271 -83.85626 33165 ft 517 kts 76°
2026-04-20 01:13 42.38578 -83.76124 33166 ft 516 kts 76°
2026-04-20 01:13 42.39882 -83.66576 33125 ft 518 kts 76°
2026-04-20 01:14 42.40600 -83.61871 32928 ft 515 kts 73°
2026-04-20 01:14 42.41517 -83.57199 32752 ft 511 kts 69°
2026-04-20 01:14 42.42616 -83.52692 32577 ft 507 kts 66°
2026-04-20 01:14 42.43808 -83.48227 32398 ft 505 kts 65°
2026-04-20 01:15 42.45017 -83.43793 32219 ft 502 kts 65°
2026-04-20 01:15 42.46226 -83.39362 32011 ft 501 kts 65°
2026-04-20 01:15 42.47425 -83.34942 31618 ft 500 kts 65°
2026-04-20 01:15 42.48610 -83.30551 31064 ft 501 kts 65°
2026-04-20 01:16 42.49806 -83.26098 30415 ft 503 kts 65°
2026-04-20 01:16 42.50980 -83.21709 29891 ft 501 kts 65°
2026-04-20 01:16 42.52155 -83.17303 29361 ft 499 kts 65°
2026-04-20 01:16 42.53338 -83.12861 28831 ft 495 kts 65°
2026-04-20 01:17 42.54483 -83.08550 28352 ft 490 kts 65°
2026-04-20 01:17 42.55625 -83.04247 27815 ft 487 kts 66°
2026-04-20 01:17 42.56756 -82.99966 27303 ft 482 kts 66°
2026-04-20 01:17 42.57884 -82.95683 26742 ft 478 kts 66°
2026-04-20 01:18 42.58982 -82.91509 26233 ft 474 kts 66°
2026-04-20 01:18 42.60074 -82.87351 25706 ft 468 kts 66°
2026-04-20 01:18 42.61150 -82.83246 25204 ft 461 kts 66°
2026-04-20 01:18 42.62222 -82.79153 24714 ft 454 kts 66°
2026-04-20 01:19 42.63263 -82.75172 24210 ft 447 kts 66°
2026-04-20 01:19 42.64290 -82.71243 23685 ft 441 kts 66°
2026-04-20 01:19 42.65298 -82.67374 23165 ft 436 kts 66°
2026-04-20 01:19 42.66303 -82.63515 22678 ft 430 kts 66°
2026-04-20 01:20 42.67291 -82.59714 22178 ft 426 kts 66°
2026-04-20 01:20 42.68266 -82.55957 21673 ft 422 kts 66°
2026-04-20 01:20 42.69227 -82.52251 21173 ft 417 kts 66°
2026-04-20 01:20 42.70180 -82.48570 20686 ft 413 kts 66°
2026-04-20 01:21 42.71129 -82.44901 20205 ft 410 kts 66°
2026-04-20 01:21 42.72059 -82.41294 19725 ft 407 kts 66°
2026-04-20 01:21 42.73003 -82.37634 19234 ft 404 kts 66°
2026-04-20 01:21 42.73917 -82.34080 18764 ft 401 kts 68°
2026-04-20 01:22 42.74830 -82.30523 18299 ft 398 kts 68°
2026-04-20 01:22 42.75738 -82.26984 17823 ft 396 kts 68°
2026-04-20 01:22 42.76644 -82.23447 17379 ft 393 kts 68°
2026-04-20 01:22 42.77529 -82.19984 16922 ft 390 kts 68°
2026-04-20 01:23 42.78419 -82.16500 16445 ft 388 kts 68°
2026-04-20 01:23 42.79268 -82.13067 15964 ft 387 kts 72°
2026-04-20 01:23 42.79702 -82.09409 15118 ft 397 kts 84°
2026-04-20 01:23 42.79836 -82.05682 14340 ft 399 kts 87°
2026-04-20 01:24 42.79924 -82.01910 13687 ft 396 kts 87°
2026-04-20 01:24 42.80035 -81.98231 13079 ft 391 kts 86°
2026-04-20 01:24 42.80177 -81.94537 12404 ft 387 kts 85°
2026-04-20 01:24 42.80334 -81.90929 11886 ft 378 kts 85°
2026-04-20 01:25 42.80499 -81.87424 11360 ft 363 kts 85°
2026-04-20 01:25 42.80665 -81.84106 10700 ft 349 kts 84°
2026-04-20 01:25 42.80826 -81.80879 10212 ft 336 kts 84°
2026-04-20 01:25 42.80993 -81.77797 9830 ft 321 kts 85°
2026-04-20 01:26 42.81133 -81.74820 9400 ft 305 kts 84°
2026-04-20 01:26 42.81267 -81.72041 9003 ft 289 kts 83°
2026-04-20 01:26 42.81408 -81.69391 8628 ft 279 kts 83°
2026-04-20 01:26 42.81545 -81.66745 8335 ft 276 kts 83°
2026-04-20 01:27 42.81675 -81.64163 8047 ft 271 kts 82°
2026-04-20 01:27 42.81805 -81.61627 7759 ft 267 kts 83°
2026-04-20 01:27 42.81920 -81.59154 7462 ft 263 kts 82°
2026-04-20 01:27 42.82044 -81.56683 7153 ft 257 kts 82°
2026-04-20 01:28 42.82162 -81.54320 6847 ft 245 kts 82°
2026-04-20 01:28 42.82270 -81.52054 6557 ft 234 kts 81°
2026-04-20 01:28 42.82370 -81.49907 6270 ft 225 kts 81°
2026-04-20 01:28 42.82464 -81.47819 5990 ft 219 kts 80°
2026-04-20 01:29 42.82569 -81.45766 5802 ft 218 kts 79°
2026-04-20 01:29 42.82677 -81.43710 5514 ft 215 kts 79°
2026-04-20 01:29 42.82780 -81.41716 5254 ft 212 kts 79°
2026-04-20 01:29 42.82884 -81.39705 4993 ft 211 kts 80°
2026-04-20 01:30 42.82978 -81.37720 4731 ft 208 kts 80°
2026-04-20 01:30 42.83065 -81.35790 4469 ft 206 kts 79°
2026-04-20 01:30 42.83154 -81.33852 4205 ft 203 kts 80°
2026-04-20 01:30 42.83246 -81.31932 4053 ft 201 kts 81°
2026-04-20 01:31 42.83335 -81.30039 4047 ft 201 kts 80°
2026-04-20 01:31 42.83424 -81.28156 4045 ft 201 kts 79°
2026-04-20 01:31 42.83516 -81.26231 4039 ft 202 kts 80°
2026-04-20 01:31 42.83610 -81.24320 4040 ft 202 kts 80°
2026-04-20 01:32 42.83700 -81.22412 4044 ft 202 kts 80°
2026-04-20 01:32 42.83789 -81.20500 4040 ft 203 kts 80°
2026-04-20 01:32 42.83877 -81.18598 4038 ft 203 kts 81°
2026-04-20 01:32 42.83963 -81.16681 4036 ft 203 kts 81°
2026-04-20 01:33 42.84045 -81.14756 3931 ft 202 kts 81°
2026-04-20 01:33 42.84126 -81.12852 3908 ft 195 kts 80°
2026-04-20 01:33 42.84209 -81.11034 3900 ft 192 kts 81°
2026-04-20 01:33 42.84290 -81.09240 3901 ft 192 kts 81°
2026-04-20 01:34 42.84483 -81.07470 3890 ft 185 kts 63°
2026-04-20 01:34 42.85146 -81.06020 3844 ft 177 kts 43°
2026-04-20 01:34 42.85961 -81.04771 3757 ft 176 kts 41°
2026-04-20 01:34 42.86786 -81.03539 3650 ft 175 kts 41°
2026-04-20 01:35 42.87602 -81.02314 3544 ft 175 kts 41°
2026-04-20 01:35 42.88418 -81.01074 3429 ft 174 kts 43°
2026-04-20 01:35 42.89225 -80.99841 3248 ft 172 kts 40°
2026-04-20 01:35 42.90232 -80.99139 2955 ft 163 kts 356°
2026-04-20 01:36 42.91211 -80.99829 2960 ft 167 kts 317°
2026-04-20 01:36 42.91997 -81.01000 3006 ft 167 kts 317°
2026-04-20 01:36 42.92811 -81.02113 3007 ft 156 kts 318°
2026-04-20 01:36 42.93527 -81.03039 2994 ft 134 kts 320°
2026-04-20 01:37 42.94194 -81.03879 3006 ft 128 kts 321°
2026-04-20 01:37 42.94858 -81.04703 2996 ft 127 kts 321°
2026-04-20 01:37 42.95518 -81.05515 2793 ft 127 kts 321°
2026-04-20 01:37 42.96170 -81.06296 2609 ft 126 kts 321°
2026-04-20 01:38 42.96833 -81.07102 2425 ft 126 kts 321°
2026-04-20 01:38 42.97492 -81.07883 2257 ft 125 kts 320°
2026-04-20 01:38 42.98147 -81.08664 2077 ft 125 kts 318°
2026-04-20 01:38 42.98792 -81.09449 1912 ft 125 kts 318°
2026-04-20 01:39 42.99442 -81.10235 1734 ft 125 kts 319°
2026-04-20 01:39 43.00094 -81.11032 1556 ft 125 kts 318°
2026-04-20 01:39 43.00747 -81.11805 1385 ft 124 kts 318°
2026-04-20 01:39 43.01379 -81.12592 1243 ft 124 kts 319°
2026-04-20 01:40 43.02033 -81.13365 1060 ft 123 kts 317°
2026-04-20 01:40 43.02663 -81.14130 923 ft 112 kts 317°
2026-04-20 01:40 43.03045 -81.14584 923 ft 50 kts 320°
2026-04-20 01:40 43.03282 -81.14864 923 ft 40 kts 320°
2026-04-20 01:41 43.03353 -81.15060 922 ft 13 kts 224°
2026-04-20 01:41 43.03320 -81.15107 922 ft 0 kts 228°
2026-04-20 01:42 43.03319 -81.15108 922 ft 0 kts 229°
2026-04-20 01:42 43.03311 -81.15121 922 ft 2 kts 227°
2026-04-20 01:42 43.03295 -81.15146 922 ft 4 kts 228°
2026-04-20 01:42 43.03269 -81.15157 922 ft 0 kts 159°
2026-04-20 01:43 43.03241 -81.15131 922 ft 11 kts 146°
2026-04-20 01:44 43.03173 -81.15054 923 ft 14 kts 136°
2026-04-20 01:44 43.03091 -81.14954 922 ft 16 kts 139°
2026-04-20 01:44 43.02999 -81.14853 923 ft 16 kts 143°
2026-04-20 01:44 43.02929 -81.14790 923 ft 11 kts 189°
2026-04-20 01:45 43.02904 -81.14837 923 ft 3 kts 258°
2026-04-20 01:45 43.02904 -81.14841 923 ft 0 kts 258°